Погода в Голоскове

Украина / Хмельницкая область     48°44′27″N   26°32′57″E
темп.,
°C
ветер,
м/с
пор.,
м/с
влажн.,
%
обл.,
%
осадки,
мм/ч
давл.,
гПа
погр.,
м
20 апреля, вт
вт2000:00+8в3684100 0.6 1014384
03:00+8вюв2477100 1.2 1013264
06:00+6ссв3487100 0.2 1012165
09:00+8ссв357199 0.3 1012401
12:00+12с335091 0.4 10111499
15:00+13ссз334399 1.1 10101967
18:00+12сз354970 0.1 10101471
21:00+9ссз2269100 0.6 101123
21 апреля, ср
ср2100:00+9сз227699 0.8 101126
03:00+7зсз228595 0.8 101236
06:00+6з3589100 0.0 1012107
09:00+8зсз4677100 0.1 1014407
12:00+13зсз455899 0.5 10131353
15:00+14зсз575095 2.3 10131799
18:00+14з355263 0.3 10131150
21:00+10зюз347169 0.6 101457
22 апреля, чт
чт2200:00+9зюз2275100 0.1 101519
03:00+8зюз1176100 0.1 101514
06:00+7юз227941 0.0 101537
09:00+11юз486577 0.0 1016491
12:00+14зюз475694 0.1 10161671
15:00+16зюз474569 0.6 10151446
18:00+10юв578199 2.2 1015180
21:00+10ююв368313 2.9 1015116
23 апреля, пт
пт2300:00+9юз22885 0.0 101534
03:00+7св129567 0.0 101444
06:00+7ссз4693100 0.0 1015470
09:00+5ссз5794100 1.7 1018720
12:00+4ссз6894100 2.2 1019695
15:00+9зсз5757100 2.4 10191509
18:00+10сз710525 0.0 10181964
21:00+6сз49650 0.0 1021279
24 апреля, сб
сб2400:00+4зсз4117519 0.0 1022398
03:00+3зсз613785 0.0 1022559
06:00+2зсз511843 0.0 1023432
09:00+5сз610500 0.0 10241321
12:00+8зсз584397 0.0 10231966
15:00+11з593895 0.0 10212407
18:00+12зсз594599 0.0 10192164
21:00+8с227196 0.2 102124